owner,sensor,date,latitude,longitude,vertical_datum,sea_water_speed,direction_of_sea_water_velocity,upward_sea_water_velocity,qcFlag
BP,ioos:station:wmo:42369:4,2021-06-03T23:00:00Z,29.2535,-90.6610,1343.0,144.6,83.4,-9999.0,'111111411,111111411,999999991'
BP,ioos:station:wmo:42369:4,2021-06-03T23:40:00Z,29.2535,-90.6610,1343.0,47.5,88.4,-9999.0,'111114311,111114311,999999991'
BP,ioos:station:wmo:42369:4,2021-06-04T00:00:00Z,29.2535,-90.6610,1343.0,88.1,284.7,-9999.0,'111111411,111111411,999999991'
BP,ioos:station:wmo:42369:4,2021-06-04T00:20:00Z,29.2535,-90.6610,1343.0,151.9,65.6,-9999.0,'111331411,111111411,999999991'
BP,ioos:station:wmo:42369:4,2021-06-04T00:40:00Z,29.2535,-90.6610,1343.0,121.7,301.2,-9999.0,'111113411,111113411,999999991'
BP,ioos:station:wmo:42369:4,2021-06-04T01:00:00Z,29.2535,-90.6610,1343.0,57.0,355.6,-9999.0,'111111311,111111311,999999991'
BP,ioos:station:wmo:42369:4,2021-06-04T01:20:00Z,29.2535,-90.6610,1343.0,122.4,322.6,-9999.0,'111113311,111113311,999999991'
BP,ioos:station:wmo:42369:4,2021-06-04T01:40:00Z,29.2535,-90.6610,1343.0,154.5,310.6,-9999.0,'111331111,111111111,999999991'
BP,ioos:station:wmo:42369:4,2021-06-04T02:00:00Z,29.2535,-90.6610,1343.0,98.4,310.7,-9999.0,'111111111,111111111,999999991'
BP,ioos:station:wmo:42369:4,2021-06-04T02:20:00Z,29.2535,-90.6609,1343.0,102.4,310.6,-9999.0,'111111111,111111111,999999991'
BP,ioos:station:wmo:42369:4,2021-06-04T02:40:00Z,29.2535,-90.6609,1343.0,87.8,323.8,-9999.0,'111111111,111111111,999999991'
BP,ioos:station:wmo:42369:4,2021-06-04T03:00:00Z,29.2535,-90.6610,1343.0,94.7,318.2,-9999.0,'111111111,111111111,999999991'
BP,ioos:station:wmo:42369:4,2021-06-04T03:20:00Z,29.2535,-90.6610,1343.0,106.5,312.3,-9999.0,'111111111,111111111,999999991'
BP,ioos:station:wmo:42369:4,2021-06-04T03:40:00Z,29.2535,-90.6610,1343.0,93.0,322.4,-9999.0,'111111111,111111111,999999991'
BP,ioos:station:wmo:42369:4,2021-06-04T04:00:00Z,29.2535,-90.6610,1343.0,41.7,331.8,-9999.0,'111111111,111111111,999999991'
BP,ioos:station:wmo:42369:4,2021-06-04T04:20:00Z,29.2535,-90.6610,1343.0,34.9,95.8,-9999.0,'111111311,111111311,999999991'
BP,ioos:station:wmo:42369:4,2021-06-04T04:40:00Z,29.2535,-90.6610,1343.0,18.3,84.4,-9999.0,'111111111,111111111,999999991'
BP,ioos:station:wmo:42369:4,2021-06-04T05:00:00Z,29.2535,-90.6610,1343.0,23.7,79.5,-9999.0,'111111111,111111111,999999991'
BP,ioos:station:wmo:42369:4,2021-06-04T05:20:00Z,29.2535,-90.6610,1343.0,9.8,334.5,-9999.0,'111111111,111111111,999999991'
BP,ioos:station:wmo:42369:4,2021-06-04T05:40:00Z,29.2535,-90.6610,1343.0,11.0,324.6,-9999.0,'111111111,111111111,999999991'
BP,ioos:station:wmo:42369:4,2021-06-04T06:00:00Z,29.2535,-90.6610,1343.0,23.4,326.3,-9999.0,'111111111,111111111,999999991'
BP,ioos:station:wmo:42369:4,2021-06-04T06:20:00Z,29.2535,-90.6610,1343.0,33.4,318.6,-9999.0,'111111111,111111111,999999991'
BP,ioos:station:wmo:42369:4,2021-06-04T06:40:00Z,29.2535,-90.6610,1343.0,33.0,296.6,-9999.0,'111111111,111111111,999999991'
BP,ioos:station:wmo:42369:4,2021-06-04T07:00:00Z,29.2535,-90.6610,1343.0,55.1,289.2,-9999.0,'111111111,111111111,999999991'
BP,ioos:station:wmo:42369:4,2021-06-04T07:20:00Z,29.2535,-90.6610,1343.0,71.7,295.5,-9999.0,'111111111,111111111,999999991'
BP,ioos:station:wmo:42369:4,2021-06-04T07:40:00Z,29.2535,-90.6610,1343.0,58.7,297.2,-9999.0,'111111111,111111111,999999991'
BP,ioos:station:wmo:42369:4,2021-06-04T08:00:00Z,29.2535,-90.6610,1343.0,25.5,71.2,-9999.0,'111111311,111111311,999999991'
BP,ioos:station:wmo:42369:4,2021-06-04T08:20:00Z,29.2535,-90.6610,1343.0,51.1,68.1,-9999.0,'111111111,111111111,999999991'
BP,ioos:station:wmo:42369:4,2021-06-04T08:40:00Z,29.2535,-90.6610,1343.0,22.9,54.4,-9999.0,'111111111,111111111,999999991'
BP,ioos:station:wmo:42369:4,2021-06-04T09:00:00Z,29.2535,-90.6610,1343.0,59.2,312.6,-9999.0,'111113311,111113311,999999991'
BP,ioos:station:wmo:42369:4,2021-06-04T09:20:00Z,29.2535,-90.6610,1343.0,105.6,308.0,-9999.0,'111111111,111111111,999999991'
BP,ioos:station:wmo:42369:4,2021-06-04T09:40:00Z,29.2535,-90.6610,1343.0,99.0,302.8,-9999.0,'111111111,111111111,999999991'
BP,ioos:station:wmo:42369:4,2021-06-04T10:00:00Z,29.2535,-90.6610,1343.0,88.1,302.4,-9999.0,'111111111,111111111,999999991'
BP,ioos:station:wmo:42369:4,2021-06-04T10:20:00Z,29.2535,-90.6610,1343.0,79.8,304.8,-9999.0,'111111111,111111111,999999991'
BP,ioos:station:wmo:42369:4,2021-06-04T10:40:00Z,29.2535,-90.6610,1343.0,79.4,307.5,-9999.0,'111111111,111111111,999999991'
BP,ioos:station:wmo:42369:4,2021-06-04T11:00:00Z,29.2535,-90.6610,1343.0,66.9,301.2,-9999.0,'111111111,111111111,999999991'
BP,ioos:station:wmo:42369:4,2021-06-04T11:20:00Z,29.2535,-90.6610,1343.0,65.2,291.4,-9999.0,'111111111,111111111,999999991'
BP,ioos:station:wmo:42369:4,2021-06-04T11:40:00Z,29.2535,-90.6610,1343.0,54.6,287.3,-9999.0,'111111111,111111111,999999991'
BP,ioos:station:wmo:42369:4,2021-06-04T12:00:00Z,29.2535,-90.6610,1343.0,61.2,305.8,-9999.0,'111111111,111111111,999999991'
BP,ioos:station:wmo:42369:4,2021-06-04T12:20:00Z,29.2535,-90.6610,1343.0,42.2,76.0,-9999.0,'111111311,111111311,999999991'
BP,ioos:station:wmo:42369:4,2021-06-04T12:40:00Z,29.2535,-90.6610,1343.0,6.1,69.8,-9999.0,'111111111,111111111,999999991'
BP,ioos:station:wmo:42369:4,2021-06-04T13:00:00Z,29.2535,-90.6610,1343.0,27.9,314.0,-9999.0,'111111111,111111111,999999991'
BP,ioos:station:wmo:42369:4,2021-06-04T13:20:00Z,29.2535,-90.6610,1343.0,48.5,309.3,-9999.0,'111111111,111111111,999999991'
BP,ioos:station:wmo:42369:4,2021-06-04T13:40:00Z,29.2535,-90.6610,1343.0,49.7,280.8,-9999.0,'111111111,111111111,999999991'
BP,ioos:station:wmo:42369:4,2021-06-04T14:00:00Z,29.2535,-90.6610,1343.0,71.6,288.4,-9999.0,'111111111,111111111,999999991'
BP,ioos:station:wmo:42369:4,2021-06-04T14:20:00Z,29.2535,-90.6610,1343.0,51.4,313.6,-9999.0,'111113111,111113111,999999991'
BP,ioos:station:wmo:42369:4,2021-06-04T14:40:00Z,29.2535,-90.6610,1343.0,98.2,81.1,-9999.0,'111111411,111111411,999999991'
BP,ioos:station:wmo:42369:4,2021-06-04T15:00:00Z,29.2535,-90.6610,1343.0,23.1,53.6,-9999.0,'111113311,111113311,999999991'
BP,ioos:station:wmo:42369:4,2021-06-04T15:20:00Z,29.2535,-90.6610,1343.0,15.3,280.9,-9999.0,'111111111,111111111,999999991'
BP,ioos:station:wmo:42369:4,2021-06-04T15:40:00Z,29.2535,-90.6610,1343.0,13.4,339.4,-9999.0,'111111111,111111111,999999991'
BP,ioos:station:wmo:42369:4,2021-06-04T16:00:00Z,29.2535,-90.6610,1343.0,65.0,287.8,-9999.0,'111111311,111111311,999999991'
BP,ioos:station:wmo:42369:4,2021-06-04T16:20:00Z,29.2535,-90.6610,1343.0,74.8,295.0,-9999.0,'111111111,111111111,999999991'
BP,ioos:station:wmo:42369:4,2021-06-04T16:40:00Z,29.2535,-90.6610,1343.0,50.9,307.8,-9999.0,'111113111,111113111,999999991'
BP,ioos:station:wmo:42369:4,2021-06-04T17:00:00Z,29.2535,-90.6610,1343.0,53.7,74.4,-9999.0,'111111311,111111311,999999991'
BP,ioos:station:wmo:42369:4,2021-06-04T17:20:00Z,29.2535,-90.6610,1343.0,72.1,298.3,-9999.0,'111111411,111111411,999999991'
BP,ioos:station:wmo:42369:4,2021-06-04T17:40:00Z,29.2535,-90.6610,1343.0,34.8,341.4,-9999.0,'111113311,111113311,999999991'
BP,ioos:station:wmo:42369:4,2021-06-04T18:00:00Z,29.2535,-90.6610,1343.0,92.3,82.5,-9999.0,'111113411,111113411,999999991'
BP,ioos:station:wmo:42369:4,2021-06-04T18:20:00Z,29.2535,-90.6610,1343.0,102.5,79.3,-9999.0,'111111111,111111111,999999991'
BP,ioos:station:wmo:42369:4,2021-06-04T18:40:00Z,29.2535,-90.6610,1343.0,51.5,69.1,-9999.0,'111113311,111113311,999999991'
BP,ioos:station:wmo:42369:4,2021-06-04T19:00:00Z,29.2535,-90.6610,1343.0,77.9,282.7,-9999.0,'111113411,111113411,999999991'
BP,ioos:station:wmo:42369:4,2021-06-04T19:20:00Z,29.2535,-90.6610,1343.0,113.5,289.9,-9999.0,'111111111,111111111,999999991'
BP,ioos:station:wmo:42369:4,2021-06-04T19:40:00Z,29.2535,-90.6610,1343.0,72.6,297.7,-9999.0,'111111111,111111111,999999991'
BP,ioos:station:wmo:42369:4,2021-06-04T20:00:00Z,29.2535,-90.6610,1343.0,92.7,289.1,-9999.0,'111113111,111113111,999999991'
BP,ioos:station:wmo:42369:4,2021-06-04T20:20:00Z,29.2535,-90.6610,1343.0,101.2,81.6,-9999.0,'111111411,111111411,999999991'
BP,ioos:station:wmo:42369:4,2021-06-04T20:40:00Z,29.2535,-90.6609,1343.0,83.6,292.9,-9999.0,'111114411,111114411,999999991'
BP,ioos:station:wmo:42369:4,2021-06-23T00:40:00Z,29.2535,-90.6610,1343.0,154.6,315.3,-9999.0,'111331311,111111311,999999991'
BP,ioos:station:wmo:42369:4,2021-06-23T01:00:00Z,29.2535,-90.6610,1343.0,105.9,358.9,-9999.0,'111113411,111113411,999999991'
BP,ioos:station:wmo:42369:4,2021-06-23T01:20:00Z,29.2535,-90.6610,1343.0,102.3,359.9,-9999.0,'111111111,111441111,999999991'
BP,ioos:station:wmo:42369:4,2021-06-23T01:40:00Z,29.2536,-90.6610,1343.0,117.1,327.8,-9999.0,'111113311,111113311,999999991'
BP,ioos:station:wmo:42369:4,2021-06-23T02:00:00Z,29.2536,-90.6610,1343.0,161.1,307.6,-9999.0,'111331311,111111311,999999991'
BP,ioos:station:wmo:42369:4,2021-06-23T02:20:00Z,29.2536,-90.6610,1343.0,121.5,2.6,-9999.0,'111114411,111114411,999999991'
BP,ioos:station:wmo:42369:4,2021-06-23T02:40:00Z,29.2535,-90.6610,1343.0,192.1,41.7,-9999.0,'111441411,111111411,999999991'
BP,ioos:station:wmo:42369:4,2021-06-23T03:00:00Z,29.2535,-90.6610,1343.0,132.7,32.4,-9999.0,'111113311,111113311,999999991'
BP,ioos:station:wmo:42369:4,2021-06-23T03:20:00Z,29.2535,-90.6610,1343.0,76.0,19.4,-9999.0,'111111111,111111111,999999991'
BP,ioos:station:wmo:42369:4,2021-06-23T03:40:00Z,29.2536,-90.6610,1343.0,72.3,358.2,-9999.0,'111111111,111111111,999999991'
BP,ioos:station:wmo:42369:4,2021-06-23T04:00:00Z,29.2536,-90.6610,1343.0,76.1,343.2,-9999.0,'111111111,111111111,999999991'
BP,ioos:station:wmo:42369:4,2021-06-23T04:20:00Z,29.2536,-90.6610,1343.0,76.0,353.0,-9999.0,'111111111,111111111,999999991'
BP,ioos:station:wmo:42369:4,2021-06-23T04:40:00Z,29.2536,-90.6610,1343.0,78.4,346.8,-9999.0,'111111111,111111111,999999991'
BP,ioos:station:wmo:42369:4,2021-06-23T05:00:00Z,29.2536,-90.6610,1343.0,81.5,3.2,-9999.0,'111111111,111111111,999999991'
BP,ioos:station:wmo:42369:4,2021-06-23T05:20:00Z,29.2536,-90.6610,1343.0,84.1,1.8,-9999.0,'111111111,111111111,999999991'
BP,ioos:station:wmo:42369:4,2021-06-23T05:40:00Z,29.2536,-90.6610,1343.0,84.8,1.4,-9999.0,'111111111,111111111,999999991'
BP,ioos:station:wmo:42369:4,2021-06-23T06:00:00Z,29.2536,-90.6610,1343.0,86.0,5.6,-9999.0,'111111111,111111111,999999991'
BP,ioos:station:wmo:42369:4,2021-06-23T06:20:00Z,29.2536,-90.6610,1343.0,83.8,357.9,-9999.0,'111111111,111111111,999999991'
BP,ioos:station:wmo:42369:4,2021-06-23T06:40:00Z,29.2536,-90.6610,1343.0,84.1,2.5,-9999.0,'111111111,111111111,999999991'
BP,ioos:station:wmo:42369:4,2021-06-23T07:00:00Z,29.2536,-90.6610,1343.0,88.2,12.8,-9999.0,'111111111,111111111,999999991'
BP,ioos:station:wmo:42369:4,2021-06-23T07:20:00Z,29.2536,-90.6610,1343.0,109.3,28.2,-9999.0,'111111111,111111111,999999991'
BP,ioos:station:wmo:42369:4,2021-06-23T07:40:00Z,29.2536,-90.6610,1343.0,112.8,32.3,-9999.0,'111111111,111111111,999999991'
BP,ioos:station:wmo:42369:4,2021-06-23T08:00:00Z,29.2536,-90.6610,1343.0,106.4,32.7,-9999.0,'111111111,111111111,999999991'
BP,ioos:station:wmo:42369:4,2021-06-23T08:20:00Z,29.2536,-90.6610,1343.0,92.7,39.7,-9999.0,'111111111,111111111,999999991'
BP,ioos:station:wmo:42369:4,2021-06-23T08:40:00Z,29.2536,-90.6610,1343.0,79.9,42.7,-9999.0,'111111111,111111111,999999991'
BP,ioos:station:wmo:42369:4,2021-06-23T09:00:00Z,29.2536,-90.6610,1343.0,79.1,42.2,-9999.0,'111111111,111111111,999999991'
BP,ioos:station:wmo:42369:4,2021-06-23T09:20:00Z,29.2536,-90.6610,1343.0,87.7,42.3,-9999.0,'111111111,111111111,999999991'
BP,ioos:station:wmo:42369:4,2021-06-23T09:40:00Z,29.2536,-90.6610,1343.0,76.8,42.4,-9999.0,'111111111,111111111,999999991'
BP,ioos:station:wmo:42369:4,2021-06-23T10:00:00Z,29.2536,-90.6610,1343.0,71.2,36.5,-9999.0,'111111111,111111111,999999991'
BP,ioos:station:wmo:42369:4,2021-06-23T10:20:00Z,29.2536,-90.6610,1343.0,66.7,37.0,-9999.0,'111111111,111111111,999999991'
BP,ioos:station:wmo:42369:4,2021-06-23T10:40:00Z,29.2536,-90.6610,1343.0,61.5,41.0,-9999.0,'111111111,111111111,999999991'
BP,ioos:station:wmo:42369:4,2021-06-23T11:00:00Z,29.2536,-90.6610,1343.0,49.0,26.4,-9999.0,'111111111,111111111,999999991'
BP,ioos:station:wmo:42369:4,2021-06-23T11:20:00Z,29.2536,-90.6610,1343.0,43.7,355.7,-9999.0,'111111111,111111111,999999991'
BP,ioos:station:wmo:42369:4,2021-06-23T11:40:00Z,29.2535,-90.6610,1343.0,46.8,12.7,-9999.0,'111111111,111111111,999999991'
BP,ioos:station:wmo:42369:4,2021-06-23T12:00:00Z,29.2535,-90.6610,1343.0,50.8,22.0,-9999.0,'111111111,111111111,999999991'
BP,ioos:station:wmo:42369:4,2021-06-23T12:20:00Z,29.2536,-90.6610,1343.0,84.2,33.4,-9999.0,'111111111,111111111,999999991'
BP,ioos:station:wmo:42369:4,2021-06-23T12:40:00Z,29.2536,-90.6610,1343.0,115.9,25.0,-9999.0,'111111111,111111111,999999991'
BP,ioos:station:wmo:42369:4,2021-06-23T13:00:00Z,29.2536,-90.6610,1343.0,85.0,349.4,-9999.0,'111111311,111111311,999999991'
BP,ioos:station:wmo:42369:4,2021-06-23T13:20:00Z,29.2536,-90.6610,1343.0,72.8,347.3,-9999.0,'111111111,111111111,999999991'
BP,ioos:station:wmo:42369:4,2021-06-23T13:40:00Z,29.2536,-90.6610,1343.0,109.4,28.9,-9999.0,'111113311,111113311,999999991'
BP,ioos:station:wmo:42369:4,2021-06-23T14:00:00Z,29.2535,-90.6610,1343.0,159.4,32.3,-9999.0,'111333111,111113111,999999991'
BP,ioos:station:wmo:42369:4,2021-06-23T14:20:00Z,29.2535,-90.6610,1343.0,141.6,316.8,-9999.0,'111111411,111111411,999999991'
BP,ioos:station:wmo:42369:4,2021-06-23T14:40:00Z,29.2536,-90.6610,1343.0,101.8,5.0,-9999.0,'111114411,111114411,999999991'
BP,ioos:station:wmo:42369:4,2021-06-23T15:00:00Z,29.2536,-90.6610,1343.0,229.6,41.1,-9999.0,'111441411,111111411,999999991'
BP,ioos:station:wmo:42369:4,2021-06-23T15:20:00Z,29.2536,-90.6610,1343.0,154.1,335.2,-9999.0,'111333411,111113411,999999991'
BP,ioos:station:wmo:42369:4,2021-06-23T22:20:00Z,29.2536,-90.6610,1343.0,1.0,84.3,-9999.0,'111334411,111114411,999999991'
BP,ioos:station:wmo:42369:4,2021-06-24T00:00:00Z,29.2536,-90.6610,1343.0,160.2,206.9,-9999.0,'111333411,111113411,999999991'
BP,ioos:station:wmo:42369:4,2021-06-24T00:40:00Z,29.2536,-90.6610,1343.0,137.8,329.6,-9999.0,'111114411,111114411,999999991'
BP,ioos:station:wmo:42369:4,2021-06-24T02:00:00Z,29.2535,-90.6610,1343.0,134.4,36.7,-9999.0,'111113411,111113411,999999991'
BP,ioos:station:wmo:42369:4,2021-06-24T05:00:00Z,29.2535,-90.6610,1343.0,151.8,47.0,-9999.0,'111331111,111111111,999999991'
BP,ioos:station:wmo:42369:4,2021-06-24T06:00:00Z,29.2536,-90.6610,1343.0,131.5,46.3,-9999.0,'111111111,111111111,999999991'
BP,ioos:station:wmo:42369:4,2021-06-24T08:20:00Z,29.2536,-90.6610,1343.0,91.3,33.8,-9999.0,'111111111,111111111,999999991'
BP,ioos:station:wmo:42369:4,2021-06-24T10:40:00Z,29.2535,-90.6610,1343.0,77.5,16.1,-9999.0,'111111111,111111111,999999991'
BP,ioos:station:wmo:42369:4,2021-06-24T18:20:00Z,29.2536,-90.6610,1343.0,10.2,110.0,-9999.0,'111114311,111114311,999999991'
BP,ioos:station:wmo:42369:4,2021-06-24T23:20:00Z,29.2535,-90.6610,1343.0,151.4,151.4,-9999.0,'111333411,111113411,999999991'
BP,ioos:station:wmo:42369:4,2021-06-25T00:20:00Z,29.2536,-90.6610,1343.0,169.8,35.5,-9999.0,'111334411,111114411,999999991'
BP,ioos:station:wmo:42369:4,2021-06-25T02:40:00Z,29.2536,-90.6610,1343.0,120.0,327.0,-9999.0,'111113411,111113411,999999991'
BP,ioos:station:wmo:42369:4,2021-06-25T03:00:00Z,29.2535,-90.6610,1343.0,141.4,314.7,-9999.0,'111114111,111114111,999999991'
BP,ioos:station:wmo:42369:4,2021-06-25T05:20:00Z,29.2535,-90.6610,1343.0,183.5,52.6,-9999.0,'111444411,111114411,999999991'
BP,ioos:station:wmo:42369:4,2021-06-25T05:40:00Z,29.2536,-90.6610,1343.0,166.8,51.4,-9999.0,'111331111,111111111,999999991'
BP,ioos:station:wmo:42369:4,2021-06-25T06:20:00Z,29.2535,-90.6610,1343.0,131.2,51.8,-9999.0,'111111111,111111111,999999991'
BP,ioos:station:wmo:42369:4,2021-06-25T06:40:00Z,29.2536,-90.6610,1343.0,115.7,49.1,-9999.0,'111111111,111111111,999999991'
BP,ioos:station:wmo:42369:4,2021-06-25T07:00:00Z,29.2536,-90.6610,1343.0,96.1,39.3,-9999.0,'111111111,111111111,999999991'
BP,ioos:station:wmo:42369:4,2021-06-25T08:00:00Z,29.2536,-90.6610,1343.0,83.0,29.5,-9999.0,'111111111,111111111,999999991'
BP,ioos:station:wmo:42369:4,2021-06-25T08:20:00Z,29.2535,-90.6610,1343.0,74.9,12.7,-9999.0,'111111111,111111111,999999991'
BP,ioos:station:wmo:42369:4,2021-06-25T10:40:00Z,29.2536,-90.6610,1343.0,77.0,347.9,-9999.0,'111111111,111111111,999999991'
BP,ioos:station:wmo:42369:4,2021-06-25T11:00:00Z,29.2536,-90.6610,1343.0,78.4,6.4,-9999.0,'111113111,111113111,999999991'
BP,ioos:station:wmo:42369:4,2021-06-25T15:40:00Z,29.2536,-90.6610,1343.0,197.8,34.7,-9999.0,'111441411,111111411,999999991'
BP,ioos:station:wmo:42369:4,2021-06-25T17:40:00Z,29.2537,-90.6610,1343.0,5.6,81.7,-9999.0,'111113411,111113411,999999991'
BP,ioos:station:wmo:42369:4,2021-06-25T21:40:00Z,29.2537,-90.6610,1343.0,74.5,110.8,-9999.0,'111111311,111111311,999999991'
BP,ioos:station:wmo:42369:4,2021-06-25T22:20:00Z,29.2489,-90.6668,1343.0,116.8,317.8,-9999.0,'111111411,111111411,999999991'
BP,ioos:station:wmo:42369:4,2021-06-25T22:40:00Z,29.1978,-90.6242,1343.0,147.0,105.3,-9999.0,'111114411,111114411,999999991'
BP,ioos:station:wmo:42369:4,2021-06-25T23:00:00Z,29.1978,-90.6242,1343.0,134.3,175.5,-9999.0,'111113411,111113411,999999991'
BP,ioos:station:wmo:42369:4,2021-06-25T23:20:00Z,29.1978,-90.6242,1343.0,88.5,173.9,-9999.0,'111113111,111113111,999999991'
BP,ioos:station:wmo:42369:4,2021-06-25T23:40:00Z,28.9470,-90.5570,1343.0,18.5,282.2,-9999.0,'111111311,111111311,999999991'
BP,ioos:station:wmo:42369:4,2021-06-26T00:00:00Z,28.9470,-90.5570,1343.0,89.2,205.8,-9999.0,'111111311,111111311,999999991'
BP,ioos:station:wmo:42369:4,2021-06-26T00:20:00Z,28.9470,-90.5570,1343.0,69.1,206.8,-9999.0,'111111111,111111111,999999991'
BP,ioos:station:wmo:42369:4,2021-06-26T00:40:00Z,28.8979,-90.5485,1343.0,19.4,215.2,-9999.0,'111113111,111113111,999999991'
BP,ioos:station:wmo:42369:4,2021-06-26T01:00:00Z,28.8732,-90.5436,1343.0,110.5,58.0,-9999.0,'111113411,111113411,999999991'
BP,ioos:station:wmo:42369:4,2021-06-26T01:20:00Z,28.8732,-90.5436,1343.0,120.0,55.0,-9999.0,'111111111,111111111,999999991'
BP,ioos:station:wmo:42369:4,2021-06-26T01:40:00Z,28.8732,-90.5436,1343.0,121.9,51.9,-9999.0,'111111111,111111111,999999991'
BP,ioos:station:wmo:42369:4,2021-06-26T02:00:00Z,28.7035,-90.5192,1343.0,122.0,54.5,-9999.0,'111113111,111113111,999999991'
BP,ioos:station:wmo:42369:4,2021-06-26T02:20:00Z,28.7035,-90.5192,1343.0,32.5,352.6,-9999.0,'111111411,111111411,999999991'
BP,ioos:station:wmo:42369:4,2021-06-26T02:40:00Z,28.7035,-90.5192,1343.0,25.0,6.7,-9999.0,'111113111,111113111,999999991'
BP,ioos:station:wmo:42369:4,2021-06-26T03:00:00Z,28.7035,-90.5192,1343.0,117.1,56.2,-9999.0,'111111311,111111311,999999991'
BP,ioos:station:wmo:42369:4,2021-06-26T03:20:00Z,28.7035,-90.5192,1343.0,22.2,5.9,-9999.0,'111111311,111111311,999999991'
BP,ioos:station:wmo:42369:4,2021-06-26T03:40:00Z,28.4837,-90.4768,1343.0,21.3,15.5,-9999.0,'111111111,111111111,999999991'
BP,ioos:station:wmo:42369:4,2021-06-26T04:00:00Z,28.4837,-90.4768,1343.0,130.0,49.3,-9999.0,'111111311,111111311,999999991'
BP,ioos:station:wmo:42369:4,2021-06-26T04:20:00Z,28.3842,-90.4647,1343.0,43.6,44.6,-9999.0,'111111311,111111311,999999991'
BP,ioos:station:wmo:42369:4,2021-06-26T04:40:00Z,28.3842,-90.4647,1343.0,151.5,44.8,-9999.0,'111331311,111111311,999999991'
BP,ioos:station:wmo:42369:4,2021-06-26T05:00:00Z,28.2876,-90.4527,1343.0,149.5,43.0,-9999.0,'111111111,111111111,999999991'
BP,ioos:station:wmo:42369:4,2021-06-26T05:20:00Z,28.2876,-90.4527,1343.0,148.8,45.7,-9999.0,'111111111,111111111,999999991'
BP,ioos:station:wmo:42369:4,2021-06-26T05:40:00Z,28.2876,-90.4527,1343.0,40.2,34.6,-9999.0,'111111311,111111311,999999991'
BP,ioos:station:wmo:42369:4,2021-06-26T06:00:00Z,28.2876,-90.4527,1343.0,137.2,48.6,-9999.0,'111111311,111111311,999999991'
BP,ioos:station:wmo:42369:4,2021-06-26T06:20:00Z,28.2876,-90.4527,1343.0,38.4,37.4,-9999.0,'111111311,111111311,999999991'
BP,ioos:station:wmo:42369:4,2021-06-26T06:40:00Z,28.2876,-90.4527,1343.0,132.0,49.2,-9999.0,'111111311,111111311,999999991'
BP,ioos:station:wmo:42369:4,2021-06-26T07:00:00Z,28.0244,-90.4121,1343.0,42.7,38.8,-9999.0,'111111311,111111311,999999991'
BP,ioos:station:wmo:42369:4,2021-06-26T07:20:00Z,28.0244,-90.4121,1343.0,36.0,26.9,-9999.0,'111111111,111111111,999999991'
BP,ioos:station:wmo:42369:4,2021-06-26T07:40:00Z,27.9058,-90.3932,1343.0,32.0,33.8,-9999.0,'111111111,111111111,999999991'
BP,ioos:station:wmo:42369:4,2021-06-26T08:00:00Z,27.9058,-90.3932,1343.0,127.0,53.4,-9999.0,'111111311,111111311,999999991'
BP,ioos:station:wmo:42369:4,2021-06-26T08:20:00Z,27.9058,-90.3932,1343.0,38.1,27.7,-9999.0,'111111311,111111311,999999991'
BP,ioos:station:wmo:42369:4,2021-06-26T08:40:00Z,27.7369,-90.3664,1343.0,141.2,46.1,-9999.0,'111111311,111111311,999999991'
BP,ioos:station:wmo:42369:4,2021-06-26T09:00:00Z,27.7128,-90.3625,1343.0,45.1,37.4,-9999.0,'111111311,111111311,999999991'
BP,ioos:station:wmo:42369:4,2021-06-26T09:20:00Z,27.7128,-90.3625,1343.0,37.8,38.9,-9999.0,'111111111,111111111,999999991'
BP,ioos:station:wmo:42369:4,2021-06-26T09:40:00Z,27.6153,-90.3471,1343.0,131.0,49.6,-9999.0,'111111311,111111311,999999991'
BP,ioos:station:wmo:42369:4,2021-06-26T10:00:00Z,27.5907,-90.3432,1343.0,130.2,50.9,-9999.0,'111111111,111111111,999999991'
BP,ioos:station:wmo:42369:4,2021-06-26T10:20:00Z,27.5907,-90.3432,1343.0,25.9,24.2,-9999.0,'111111311,111111311,999999991'
BP,ioos:station:wmo:42369:4,2021-06-26T10:40:00Z,27.5907,-90.3432,1343.0,114.9,58.6,-9999.0,'111111311,111111311,999999991'
BP,ioos:station:wmo:42369:4,2021-06-26T11:00:00Z,27.3147,-90.2996,1343.0,116.7,57.0,-9999.0,'111111111,111111111,999999991'
BP,ioos:station:wmo:42369:4,2021-06-26T11:20:00Z,27.3147,-90.2996,1343.0,125.4,50.6,-9999.0,'111111111,111111111,999999991'
BP,ioos:station:wmo:42369:4,2021-06-26T11:40:00Z,27.3147,-90.2996,1343.0,143.7,45.3,-9999.0,'111113111,111113111,999999991'
BP,ioos:station:wmo:42369:4,2021-06-26T12:00:00Z,27.1944,-90.2756,1343.0,77.0,123.6,-9999.0,'111114411,111114411,999999991'
BP,ioos:station:wmo:42369:4,2021-06-26T12:20:00Z,27.1944,-90.2756,1343.0,139.0,185.1,-9999.0,'111113311,111113311,999999991'
BP,ioos:station:wmo:42369:4,2021-06-26T12:40:00Z,27.1944,-90.2756,1343.0,155.8,48.0,-9999.0,'111334411,111114411,999999991'
BP,ioos:station:wmo:42369:4,2021-06-26T13:00:00Z,27.1993,-90.2977,1343.0,184.1,24.7,-9999.0,'111441311,111111311,999999991'
BP,ioos:station:wmo:42369:4,2021-06-26T13:20:00Z,27.1993,-90.2977,1343.0,152.3,16.3,-9999.0,'111333111,111113111,999999991'
BP,ioos:station:wmo:42369:4,2021-06-26T13:40:00Z,27.1993,-90.2977,1343.0,68.9,44.4,-9999.0,'111111311,111111311,999999991'
BP,ioos:station:wmo:42369:4,2021-06-26T14:00:00Z,27.2024,-90.3020,1343.0,124.7,22.4,-9999.0,'111111311,111111311,999999991'
BP,ioos:station:wmo:42369:4,2021-06-26T14:20:00Z,27.2294,-90.3543,1343.0,99.3,35.7,-9999.0,'111111111,111111111,999999991'
BP,ioos:station:wmo:42369:4,2021-06-26T15:00:00Z,27.2029,-90.2880,1343.0,142.4,19.0,-9999.0,'111111311,111111311,999999991'
BP,ioos:station:wmo:42369:4,2021-06-26T15:20:00Z,27.2029,-90.2880,1343.0,175.9,29.5,-9999.0,'111331111,111111111,999999991'
BP,ioos:station:wmo:42369:4,2021-06-26T15:40:00Z,27.2029,-90.2880,1343.0,153.9,20.5,-9999.0,'111331111,111111111,999999991'
BP,ioos:station:wmo:42369:4,2021-06-26T16:00:00Z,27.2104,-90.3029,1343.0,154.2,50.3,-9999.0,'111333311,111113311,999999991'
BP,ioos:station:wmo:42369:4,2021-06-26T20:40:00Z,27.2043,-90.2889,1343.0,44.1,264.3,-9999.0,'111113411,111113411,999999991'
BP,ioos:station:wmo:42369:4,2021-06-26T21:00:00Z,27.2040,-90.2888,1343.0,14.9,262.3,-9999.0,'111111111,111111111,999999991'
BP,ioos:station:wmo:42369:4,2021-06-26T21:20:00Z,27.2040,-90.2888,1343.0,0.5,270.0,-9999.0,'111331111,111111111,999999991'